Regional Weather Roundup
Issued by NWS

Home | Current Version | Previous Version | Text Only | Print | Product List | Glossary Off
Versions: 1 2 3 4 5 6 7 8 9 10 11 12 13 14 15 16 17 18 19 20 21 22 23 24 25 26 27 28 29 30 31 32 33 34 35 36 37 38 39 40 41 42 43 44 45 46 47 48 49 50

000
ASUS43 KFSD 292010
RWRSD

WEATHER ROUNDUP FOR SOUTH DAKOTA
NATIONAL WEATHER SERVICE SIOUX FALLS SD
300 PM CDT FRI APR 29 2016

NOTE: "FAIR" INDICATES FEW OR NO CLOUDS BELOW 12,000 FEET WITH NO
SIGNIFICANT WEATHER AND/OR OBSTRUCTIONS TO VISIBILITY.


SDZ001>005-009-010-012>017-292100-
NORTHWEST AND NORTH CENTRAL SOUTH DAKOTA

CITY           SKY/WX    TMP DP  RH WIND       PRES   REMARKS
BUFFALO          N/A     49  32  52 E10       30.02S
FAITH            N/A     51  34  52 E14       30.09R
MOBRIDGE       PTSUNNY   61  38  42 SE13      30.07S
$$

SDZ012>016-024>037-041>051-057-063-072>074-292100-
SOUTHWEST AND SOUTH CENTRAL SOUTH DAKOTA

CITY           SKY/WX    TMP DP  RH WIND       PRES   REMARKS
RAPID CTY ARPT CLOUDY    44  33  65 E12       30.08S
PIERRE         CLOUDY    50  37  61 E13G24    30.10S
CUSTER         CLOUDY    33  30  88 NE14G21   30.03S FOG     WCI  23
ELLSWORTH AFB  CLOUDY    43  35  72 E8        30.08S
PHILIP         CLOUDY    49  36  61 E17       30.09S
PINE RIDGE     CLOUDY    43  35  73 E5        30.04F
WINNER         CLOUDY    43  38  82 E10       30.11S HAZE
$$

SDZ004>011-016>023-039-040-292100-
NORTHEAST SOUTH DAKOTA

CITY           SKY/WX    TMP DP  RH WIND       PRES   REMARKS
ABERDEEN       PTSUNNY   59  36  42 E12       30.11S
WATERTOWN      PTSUNNY   53  36  52 E14G21    30.11S
BROOKINGS      CLOUDY    48  38  68 E13       30.12S
SISSETON         N/A     59  37  44 SE9       30.11F
$$

SDZ017-020-022-023-036>040-048>070-292100-
SOUTHEAST SOUTH DAKOTA

CITY           SKY/WX    TMP DP  RH WIND       PRES   REMARKS
SIOUX FALLS    CLOUDY    50  39  66 SE14      30.13S
HURON          CLOUDY    52  39  61 SE14G22   30.12R
CHAMBERLAIN    CLOUDY    48  41  77 SE12      30.12R
MITCHELL       CLOUDY    50  40  68 SE20      30.13R
YANKTON        CLOUDY    43  39  87 E12       30.13R
$$

ABBREVIATIONS USED IN REMARKS
   TC - TEMPERATURE IN CELSIUS
  WCI - WIND CHILL INDEX
   HX - HEAT INDEX
  VSB - VISIBILITY





USA.gov is the U.S. government's official web portal to all federal, state and local government web resources and services.